Regional Weather Roundup
Issued by NWS Upton, NY

Home | Current Version | Previous Version | Text Only | Print | Product List | Glossary On
Versions: 1 2 3 4 5 6 7 8 9 10 11 12 13 14 15 16 17 18 19 20 21 22 23 24 25 26 27 28 29 30 31 32 33 34 35 36 37 38 39 40 41 42 43 44 45 46 47 48 49 50
000
ASUS41 KOKX 270305
RWROKX

Regional Weather Roundup
National Weather Service New York NY
1100 PM EDT THU APR 26 2018

Note: "FAIR" indicates few or no clouds below 12,000 feet with no
significant weather and/or obstructions to visibility.

NYZ071-072-176-178-NJZ106-104-270400-
New York City Metro Area

CITY           SKY/WX    TMP DP  RH WIND       PRES   REMARKS
Central Park   FAIR      62  40  44 NE3       29.88F
Bronx Bot Gard   N/A     57  39  51 NE1       29.87F
Bronx Lehman C   N/A     59  39  47 N3          N/A
LaGuardia Arpt FAIR      60  41  49 NE6       29.86S
Queens College   N/A     61  39  44 NE5         N/A
Kennedy Intl   FAIR      60  42  51 NE6       29.87S
Breezy Point     N/A     55 N/A N/A MISG        N/A
Brooklyn Coll    N/A     63  43  48 W3          N/A
Staten Island    N/A     59  45  58 SW2         N/A
Newark/Liberty FAIR      62  42  47 W5        29.86F
Teterboro      FAIR      61  40  45 CALM      29.85F
$$

NYZ177-179-078>081-270400-
Long Island New York

CITY           SKY/WX    TMP DP  RH WIND       PRES   REMARKS
Jones Beach      N/A     55 N/A N/A W3          N/A
Wantagh          N/A     52  46  82 NE3         N/A
Hempstead        N/A     59  43  55 CALM      29.89S
Matinecock Pt    N/A     57 N/A N/A E6          N/A
Farmingdale    FAIR      54  45  71 CALM      29.87S
MacArthur/ISP  FAIR      49  44  83 CALM      29.87S
Stony Brook      N/A     55  41  58 CALM        N/A
Shirley        FAIR      50  47  89 CALM      29.88S
Mt Sinai Harb    N/A    N/A N/A N/A MISG        N/A
Westhampton    FAIR      43  38  82 CALM      29.89S
East Hampton   FAIR      46  43  88 CALM      29.87R
Southold         N/A     50  43  76 W2          N/A
Montauk          N/A     53  45  74 W5        29.88R
$$

NYZ052-065-067-270400-
Hudson Valley

CITY           SKY/WX    TMP DP  RH WIND       PRES   REMARKS
White Plains   FAIR      54  39  57 N6        29.85F
Larchmont Harb   N/A     55 N/A N/A E6          N/A
Croton On Huds   N/A     55 N/A N/A MISG        N/A
Somers           N/A     52  39  62 N2          N/A
Brewster         N/A     50  39  66 N3          N/A
Newburgh       CLEAR     52  43  71 CALM      29.88F
Montgomery     FAIR      47  43  86 CALM      29.85F
Otisville        N/A     45  43  93 W1          N/A
Warwick          N/A     46  45  93 E1          N/A
Suffern          N/A     54  39  58 NE2         N/A
Poughkeepsie   FAIR      49  41  74 CALM      29.86F
Albany         MOCLDY    45  38  76 SE5       29.91R
$$

NJZ001-105-106-008-010-013-015-019>022-104-270400-
New Jersey

CITY           SKY/WX    TMP DP  RH WIND       PRES   REMARKS
Newark/Liberty FAIR      62  42  47 W5        29.86F
Teterboro      FAIR      61  40  45 CALM      29.85F
Caldwell       FAIR      54  43  66 CALM      29.87F
Somerville     FAIR      49  46  90 CALM      29.85S
Linden         FAIR      60  41  48 W5        29.86S
Perth Amboy      N/A     59 N/A N/A W3          N/A
Sussex         FAIR      47  41  80 CALM      29.87F
Andover          N/A     49  44  83 CALM      29.87S
Trenton        FAIR      57  42  57 SW5       29.87S
Millville      FAIR      53  46  77 CALM      29.89S
Atlantic City  FAIR      52  46  80 CALM      29.89S
Wrightstown    FAIR      52  45  75 SW5       29.86S
Toms River     FAIR      45  42  89 CALM      29.89S
Belmar         FAIR      58  43  57 SW6       29.89S
$$

PAZ047>061-062-071-270400-
Eastern Pennsylvania

CITY           SKY/WX    TMP DP  RH WIND       PRES   REMARKS
Philadelphia   MOCLDY    62  40  44 CALM      29.89S
Allentown      FAIR      57  40  52 W3        29.87S
Scranton       FAIR      51  40  65 E6        29.86F
$$

CTZ002-004>006-009-010-012-RIZ004-006-007-MAZ004-011-015-270400-
Southern New England

 In CT

CITY           SKY/WX    TMP DP  RH WIND       PRES   REMARKS
Bradley Intl   FAIR      53  41  63 NE3       29.87F
Hartford       FAIR      55  41  59 CALM      29.87S
Danbury        FAIR      49  41  74 CALM      29.88F
Wtrbury/Oxford FAIR      50  40  68 NE6       29.87F
Norwalk Harbor   N/A     57 N/A N/A NW7         N/A
Bridgeport     FAIR      58  40  51 N7        29.85F
Meriden        FAIR      51  42  71 NE3       29.87F
New Haven      FAIR      57  40  52 N7        29.85F
Chester        FAIR      54  41  62 NW5       29.87R
Groton         FAIR      55  42  61 NW8       29.85F
Willimantic    FAIR      56  41  57 NW9G18    29.87S

 In RI

CITY           SKY/WX    TMP DP  RH WIND       PRES   REMARKS
Providence     FAIR      56  42  59 NW10      29.86R
Block Island   FAIR      48  44  86 W8        29.87S
Westerly       FAIR      51  45  79 CALM      29.86F

In MA

CITY           SKY/WX    TMP DP  RH WIND       PRES   REMARKS
Boston         FAIR      54  41  61 W14G21    29.84R
Worcester      FAIR      48  39  71 W21G31    29.83S
Westfield      FAIR      50  42  74 N9        29.87S
Provincetown   FAIR      52  42  69 W15       29.84R
Nantucket      FAIR      47  45  93 W14       29.85S
$$

ANZ330-335-338-340-345-350-353-355-270400-
Coastal Marine Observations


STATION/POSITION TIME  SKY/WX   TEMP    WIND        PRES    VSBY  WAVE
                                AIR SEA DIR/SP/G                  HT/PER
                 (UTC)          (F)     (DEG/KT/KT) (MB)    (MI)  (FT/S)
NY Harb Entrance 0250            52 49  210/  8/ 10 1011.4          5/11
20 S Fire Island 0150            49 45  220/ 10/ 12 1011.4          7/11
23 SSW Montauk P 0150            47 45  230/ 12/ 14 1011.5          7/11
15 E Barnegat Li 0230               48                N/A           5/10
Hudson Canyon    0250            48 45  200/ 10/ 10 1012.4          7/10
Kings Point      0230            57 50   CALM  /  1 1012.3
Execution Rocks  NOT AVBL
Western LI Sound NOT AVBL
Central LI Sound 0245            51     350/  4/  8   N/A           1
Robbins Reef     0230            63     250/  6/  7 1011.6
$$


>>>>>>>>>>>>>>>>>>>>>>>>>>>> KEY <<<<<<<<<<<<<<<<<<<<<<<<<<<
>                                                          <
>     SKY/WX - Sky Condition/Present Weather               <
>     TMP    - Temperature in Fahrenheit                   <
>     DP     - Dew Point in Fahrenheit                     <
>     RH     - Relative Humidity in Percent                <
>     WIND   - Direction (from) and Speed in MPH           <
>     PRES   - Mean Sea Level Pressure (inches of Hg)      <
>     WCI    - Wind Chill Index                            <
>     VSB    - Visibility in Miles                         <
>     HX     - Heat Index                                  <
>     TC     - Temperature in Celsius                      <
>     VRB    - Varibale Wind Direction                     <
>                                                          <
>>>>>>>>>>>>>>>>>>>>>>>>>>>> KEY <<<<<<<<<<<<<<<<<<<<<<<<<<<



USA.gov is the U.S. government's official web portal to all federal, state and local government web resources and services.